Location: Unspecified
(47.9110°N, 14.3980°E)
Time: 04:33:07
(UTC+00:00)

Cosmos 1703 Rocket - Pass Details

Date: 06 August 2020
Orbit: 605 x 634 km, 82.5° (Epoch: 19 September)

Event Time Altitude Azimuth Distance (km) Brightness Sun altitude
Rises 21:42:24 0° 345° (NNW) 2,895 8.4 -22.9°
Reaches altitude 10° 21:44:42 10° 339° (NNW) 1,980 7.3 -23.1°
Maximum altitude 21:48:52 45° 267° (W) 840 4.3 -23.3°
Enters shadow 21:49:28 42° 243° (WSW) 877 4.2 -23.3°
